| time (UTC) | temp F | wind direction | speed MPH | gust MPH | rain 1hr in | rain 24hr in | rain mn in | humidity % | barometer mb |
| 20260507210330 | 54 | 242 | 1.0 | 9.0 | 0.00 | 0.07 | 0.07 | 66 | 1012.4 |
| 20260507204843 | 52 | 279 | 1.0 | 7.0 | 0.00 | 0.07 | 0.07 | 73 | 1012.4 |
| 20260507203351 | 50 | 325 | 2.0 | 11.0 | 0.00 | 0.07 | 0.07 | 74 | 1012.4 |
| 20260507201853 | 50 | 355 | 3.0 | 10.0 | 0.00 | 0.07 | 0.07 | 74 | 1012.4 |
| 20260507200341 | 50 | 348 | 2.0 | 6.0 | 0.00 | 0.07 | 0.07 | 75 | 1012.3 |
| 20260507194838 | 50 | 290 | 2.0 | 8.0 | 0.00 | 0.07 | 0.07 | 74 | 1012.4 |
| 20260507193341 | 51 | 271 | 2.0 | 12.0 | 0.00 | 0.07 | 0.07 | 73 | 1012.4 |
| 20260507191856 | 51 | 279 | 1.0 | 9.0 | 0.00 | 0.07 | 0.07 | 75 | 1012.4 |
| 20260507190358 | 51 | 355 | 2.0 | 6.0 | 0.01 | 0.07 | 0.07 | 74 | 1012.4 |
| 20260507184852 | 50 | 335 | 1.0 | 6.0 | 0.01 | 0.07 | 0.07 | 78 | 1012.4 |
| 20260507183339 | 48 | 312 | 1.0 | 4.0 | 0.01 | 0.07 | 0.07 | 83 | 1012.3 |
| 20260507181826 | 47 | 271 | 1.0 | 8.0 | 0.01 | 0.07 | 0.07 | 82 | 1012.3 |
| 20260507180404 | 49 | 20 | 1.0 | 9.0 | 0.00 | 0.06 | 0.06 | 79 | 1012.3 |
| 20260507174834 | 49 | 340 | 0.0 | 3.0 | 0.02 | 0.06 | 0.06 | 86 | 1012.0 |
| 20260507173334 | 46 | 257 | 0.0 | 3.0 | 0.02 | 0.06 | 0.06 | 89 | 1012.0 |
| 20260507171849 | 46 | 212 | 0.0 | 6.0 | 0.03 | 0.06 | 0.06 | 88 | 1011.9 |
| 20260507170346 | 45 | 343 | 1.0 | 5.0 | 0.04 | 0.06 | 0.06 | 87 | 1011.8 |
| 20260507164828 | 45 | 343 | 0.0 | 9.0 | 0.02 | 0.04 | 0.04 | 88 | 1011.8 |
| 20260507163326 | 46 | 273 | 2.0 | 7.0 | 0.02 | 0.04 | 0.04 | 87 | 1011.8 |
| 20260507161843 | 46 | 272 | 2.0 | 6.0 | 0.02 | 0.03 | 0.03 | 83 | 1011.4 |
| 20260507160343 | 48 | 255 | 1.0 | 12.0 | 0.01 | 0.02 | 0.02 | 82 | 1011.3 |
| 20260507154844 | 48 | 339 | 5.0 | 9.0 | 0.02 | 0.02 | 0.02 | 81 | 1011.2 |
| 20260507153332 | 45 | 267 | 0.0 | 2.0 | 0.02 | 0.02 | 0.02 | 87 | 1011.2 |
| 20260507151843 | 45 | 355 | 0.0 | 0.0 | 0.01 | 0.01 | 0.01 | 80 | 1011.2 |
| 20260507150332 | 45 | 18 | 0.0 | 0.0 | 0.01 | 0.01 | 0.01 | 76 | 1010.5 |
| 20260507144905 | 45 | 331 | 0.0 | 2.0 | 0.00 | 0.00 | 0.00 | 72 | 1010.4 |
| 20260507143335 | 45 | 24 | 0.0 | 2.0 | 0.00 | 0.00 | 0.00 | 71 | 1010.3 |
| 20260507141833 | 44 | 157 | 0.0 | 1.0 | 0.00 | 0.00 | 0.00 | 69 | 1010.1 |
| 20260507140401 | 42 | 146 | 0.0 | 1.0 | 0.00 | 0.00 | 0.00 | 73 | 1010.0 |
| 20260507134838 | 40 | 221 | 0.0 | 1.0 | 0.00 | 0.00 | 0.00 | 76 | 1010.2 |
| 20260507133416 | 38 | 206 | 0.0 | 0.0 | 0.00 | 0.00 | 0.00 | 74 | 1010.6 |
| 20260507131844 | 37 | 242 | 0.0 | 0.0 | 0.00 | 0.00 | 0.00 | 76 | 1010.5 |
| 20260507130340 | 37 | 297 | 0.0 | 0.0 | 0.00 | 0.00 | 0.00 | 74 | 1010.4 |
| 20260507124841 | 36 | 355 | 0.0 | 2.0 | 0.00 | 0.00 | 0.00 | 76 | 1010.4 |
| 20260507123327 | 36 | 360 | 0.0 | 0.0 | 0.00 | 0.00 | 0.00 | 72 | 1010.1 |
| 20260507121838 | 36 | 130 | 0.0 | 0.0 | 0.00 | 0.00 | 0.00 | 71 | 1010.0 |
| 20260507120349 | 36 | 177 | 0.0 | 0.0 | 0.00 | 0.00 | 0.00 | 70 | 1009.7 |
| 20260507114828 | 36 | 157 | 0.0 | 0.0 | 0.00 | 0.00 | 0.00 | 70 | 1009.8 |
| 20260507113330 | 35 | 225 | 0.0 | 0.0 | 0.00 | 0.00 | 0.00 | 69 | 1009.9 |
| 20260507111841 | 35 | 196 | 0.0 | 0.0 | 0.00 | 0.00 | 0.00 | 69 | 1009.9 |
| 20260507110343 | 35 | 243 | 0.0 | 2.0 | 0.00 | 0.00 | 0.00 | 70 | 1010.1 |
| 20260507104837 | 34 | 196 | 0.0 | 0.0 | 0.00 | 0.00 | 0.00 | 73 | 1009.8 |
| 20260507103342 | 34 | 190 | 0.0 | 0.0 | 0.00 | 0.00 | 0.00 | 75 | 1009.8 |
| 20260507101822 | 33 | 147 | 0.0 | 0.0 | 0.00 | 0.00 | 0.00 | 75 | 1009.5 |
| 20260507100346 | 33 | 273 | 0.0 | 0.0 | 0.00 | 0.00 | 0.00 | 74 | 1009.5 |
| 20260507094834 | 32 | 225 | 0.0 | 0.0 | 0.00 | 0.00 | 0.00 | 75 | 1009.9 |
| 20260507093351 | 31 | 240 | 0.0 | 0.0 | 0.00 | 0.00 | 0.00 | 76 | 1009.5 |
| 20260507091849 | 31 | 309 | 0.0 | 0.0 | 0.00 | 0.00 | 0.00 | 76 | 1009.5 |
| 20260507090334 | 31 | 229 | 0.0 | 0.0 | 0.00 | 0.00 | 0.00 | 75 | 1009.3 |
| 20260507084844 | 31 | 229 | 0.0 | 0.0 | 0.00 | 0.00 | 0.00 | 74 | 1008.9 |
| 20260507083334 | 32 | 225 | 0.0 | 0.0 | 0.00 | 0.00 | 0.00 | 73 | 1008.8 |
| 20260507081903 | 33 | 225 | 0.0 | 0.0 | 0.00 | 0.00 | 0.00 | 71 | 1008.8 |
| 20260507080345 | 33 | 225 | 0.0 | 0.0 | 0.00 | 0.00 | 0.00 | 72 | 1008.8 |
| 20260507074833 | 33 | 225 | 0.0 | 0.0 | 0.00 | 0.00 | 0.00 | 72 | 1009.0 |
| 20260507073328 | 33 | 225 | 0.0 | 0.0 | 0.00 | 0.00 | 0.00 | 71 | 1009.0 |
| 20260507071833 | 33 | 225 | 0.0 | 0.0 | 0.00 | 0.00 | 0.00 | 71 | 1009.4 |
| 20260507070325 | 33 | 226 | 0.0 | 0.0 | 0.00 | 0.00 | 0.00 | 69 | 1009.5 |
| 20260507064843 | 34 | 229 | 0.0 | 0.0 | 0.00 | 0.00 | 0.00 | 69 | 1009.4 |
| 20260507063339 | 34 | 240 | 0.0 | 0.0 | 0.00 | 0.00 | 0.00 | 68 | 1009.2 |
| 20260507061910 | 34 | 240 | 0.0 | 0.0 | 0.00 | 0.00 | 0.00 | 68 | 1009.5 |
| 20260507060329 | 34 | 240 | 0.0 | 0.0 | 0.00 | 0.00 | 0.00 | 68 | 1009.5 |
| 20260507054835 | 36 | 229 | 0.0 | 0.0 | 0.00 | 0.00 | 0.00 | 65 | 1009.3 |
| 20260507053401 | 37 | 225 | 0.0 | 0.0 | 0.00 | 0.00 | 0.00 | 64 | 1009.3 |
| 20260507051829 | 37 | 226 | 0.0 | 0.0 | 0.00 | 0.00 | 0.00 | 64 | 1009.3 |
| 20260507050341 | 37 | 226 | 0.0 | 0.0 | 0.00 | 0.00 | 0.00 | 63 | 1009.6 |
| 20260507044843 | 38 | 226 | 0.0 | 0.0 | 0.00 | 0.00 | 0.00 | 61 | 1010.0 |
| 20260507043335 | 40 | 221 | 0.0 | 0.0 | 0.00 | 0.00 | 0.00 | 58 | 1009.9 |
| 20260507041855 | 42 | 223 | 0.0 | 0.0 | 0.00 | 0.00 | 0.00 | 55 | 1009.9 |
| 20260507040346 | 43 | 223 | 0.0 | 0.0 | 0.00 | 0.00 | 0.00 | 53 | 1009.9 |
| 20260507034844 | 44 | 223 | 0.0 | 0.0 | 0.00 | 0.00 | 0.00 | 51 | 1009.8 |
| 20260507033356 | 44 | 134 | 0.0 | 1.0 | 0.00 | 0.00 | 0.00 | 49 | 1009.5 |
| 20260507031854 | 45 | 150 | 0.0 | 1.0 | 0.00 | 0.00 | 0.00 | 48 | 1009.5 |
| 20260507030327 | 46 | 206 | 0.0 | 0.0 | 0.00 | 0.00 | 0.00 | 47 | 1009.5 |
| 20260507024842 | 47 | 143 | 0.0 | 0.0 | 0.00 | 0.00 | 0.00 | 44 | 1009.4 |
| 20260507023334 | 49 | 142 | 0.0 | 0.0 | 0.00 | 0.00 | 0.00 | 42 | 1009.4 |
| 20260507021829 | 50 | 163 | 0.0 | 0.0 | 0.00 | 0.00 | 0.00 | 40 | 1009.5 |
| 20260507020354 | 51 | 173 | 0.0 | 2.0 | 0.00 | 0.00 | 0.00 | 38 | 1009.5 |
| 20260507014841 | 51 | 153 | 0.0 | 2.0 | 0.00 | 0.00 | 0.00 | 37 | 1009.6 |
| 20260507013351 | 52 | 236 | 0.0 | 3.0 | 0.00 | 0.00 | 0.00 | 36 | 1009.6 |
| 20260507011836 | 53 | 190 | 0.0 | 2.0 | 0.00 | 0.00 | 0.00 | 34 | 1009.8 |
| 20260507010336 | 53 | 171 | 0.0 | 2.0 | 0.00 | 0.00 | 0.00 | 33 | 1010.0 |
| 20260507004823 | 54 | 132 | 0.0 | 2.0 | 0.00 | 0.00 | 0.00 | 32 | 1010.1 |
| 20260507003352 | 55 | 238 | 0.0 | 3.0 | 0.00 | 0.00 | 0.00 | 31 | 1010.5 |
| 20260507001847 | 56 | 115 | 0.0 | 2.0 | 0.00 | 0.00 | 0.00 | 29 | 1010.6 |
| 20260507000336 | 58 | 198 | 0.0 | 0.0 | 0.00 | 0.00 | 0.00 | 28 | 1010.7 |
| 20260506234854 | 57 | 248 | 0.0 | 0.0 | 0.00 | 0.00 | 0.00 | 27 | 1010.8 |
| 20260506233333 | 56 | 230 | 0.0 | 0.0 | 0.00 | 0.00 | 0.00 | 27 | 1011.1 |
| 20260506231842 | 56 | 71 | 0.0 | 0.0 | 0.00 | 0.00 | 0.00 | 27 | 1011.2 |
| 20260506230352 | 56 | 175 | 0.0 | 2.0 | 0.00 | 0.00 | 0.00 | 27 | 1011.3 |
| 20260506224844 | 57 | 311 | 0.0 | 1.0 | 0.00 | 0.00 | 0.00 | 28 | 1011.7 |
| 20260506223405 | 56 | 163 | 0.0 | 3.0 | 0.00 | 0.00 | 0.00 | 28 | 1011.8 |
| 20260506221833 | 57 | 263 | 0.0 | 2.0 | 0.00 | 0.00 | 0.00 | 28 | 1012.1 |
| 20260506220349 | 57 | 187 | 0.0 | 3.0 | 0.00 | 0.00 | 0.00 | 28 | 1012.3 |
| 20260506214832 | 57 | 21 | 0.0 | 0.0 | 0.00 | 0.00 | 0.00 | 30 | 1012.4 |
| 20260506213344 | 56 | 213 | 0.0 | 2.0 | 0.00 | 0.00 | 0.00 | 28 | 1012.6 |
| 20260506211840 | 55 | 292 | 0.0 | 2.0 | 0.00 | 0.00 | 0.00 | 28 | 1013.1 |